Location: Mauries
(43.6188°N, 0.3322°W)
Time: 20:01:22
(UTC+00:00)

Cosmos 1943 Rocket - Pass Details

Date: 14 January 2026
Orbit: 811 x 842 km, 71.0° (Epoch: 11 February)

Event Time Altitude Azimuth Distance (km) Brightness Sun altitude
Rises 05:37:08 0° 197° (SSW) 3,325 5.2 -20.4°
Reaches altitude 10° 05:39:33 10° 195° (SSW) 2,394 4.5 -19.9°
Maximum altitude 05:44:59 73° 112° (ESE) 851 2.3 -19.0°
Drops below altitude 10° 05:50:28 10° 29° (NNE) 2,406 4.8 -18.0°
Sets 05:52:54 0° 27° (NNE) 3,343 5.5 -17.6°
